Vertical_Velocity
-2 -4 -28 -9 -13 11 5 9 -5 -7 -6 -3 -4 -12 1 -15 2 7 3 -0 4 -6 1 -2 2 2 1 -3 1 -1 -1 -1 -2 -0 1 0 1 1 0 -1 -0 1 0 1
12 -34 -4 23 7 11 7 5 -10 -2 -1 15 12 -15 -2 -2 -12 -5 -2 5 1 -9 -1 -0 1 1 -0 -0 1 -3 -1 1 1 1 1 -1 2 1 1 1 1 2 2 1
-8 -23 13 2 2 3 -4 -3 -3 0 17 9 15 1 1 -8 -3 10 -8 19 -5 -6 2 -2 1 1 2 1 -1 -1 1 1 0 -1 0 -0 1 -0 0 2 1 1 1 0
3 15 -6 4 -2 7 6 -1 7 -4 20 -7 -3 -6 -16 -6 -13 -4 -2 7 -3 -8 0 -2 2 1 1 1 -0 0 1 1 2 1 -1 0 0 -0 1 0 1 0 -2 -2
-30 -1 -3 6 -33 14 -51 13 -19 -1 14 6 2 8 -45 15 -0 -7 -6 15 -3 -6 1 -0 -0 2 -0 1 -0 0 2 2 1 1 -0 -1 -2 -0 -0 1 -1 -1 -1 1
-4 6 8 -4 2 -3 17 6 8 11 17 12 -22 2 -12 9 -19 -1 9 8 -4 -4 1 -1 2 1 1 1 0 1 3 3 2 0 -1 -2 -0 0 -1 -1 -2 -4 -2 -2
7 -8 10 -4 2 2 35 17 2 11 13 -4 -6 11 -6 -3 14 -4 -2 -1 -4 -1 -0 1 1 -0 -0 1 1 2 3 2 1 -1 -1 -0 0 -2 -2 -1 -1 -2 -3 -2
3 -1 -5 -5 -18 -16 1 0 -1 -3 -1 -1 20 -3 10 4 -0 -3 4 1 0 1 0 4 -1 -0 1 1 1 3 2 1 -0 -1 -0 -1 -1 -2 -1 -1 -2 -2 -2 -2
-1 -17 9 6 -3 19 -7 4 -34 15 6 -4 -4 8 11 1 1 0 -1 -4 -1 1 1 1 -2 1 1 1 2 2 1 1 1 0 -1 -2 -2 -2 -1 -2 -2 -2 -2 -1
2 10 4 10 24 2 -8 -8 29 5 1 3 4 1 -2 -5 -1 1 -4 -5 -1 -2 -0 -3 -2 1 1 0 2 1 0 1 -0 -2 -2 -1 -1 -1 -1 -0 -2 -2 -1 -2
7 2 1 11 5 -19 8 3 6 -9 15 -4 -1 4 -1 -2 -5 -0 -3 -1 -2 -2 -0 -1 -2 2 1 3 0 0 1 0 -1 -2 0 -1 -1 -2 0 -1 -2 -2 -3 -2
-14 5 1 -9 4 -8 -8 -18 6 8 1 -2 0 5 15 1 -3 -2 1 -2 1 4 4 2 -1 2 5 2 1 2 0 0 -0 -1 1 -0 -1 -0 -1 -0 -2 -1 -1 -3
-2 2 1 -10 23 20 9 -3 -1 3 1 -2 -1 5 4 2 -1 -0 0 -2 0 3 2 0 -3 3 3 1 2 1 -1 2 -0 0 0 -1 -1 -1 -1 -0 -1 -1 -2 -2
41 4 -5 -4 -4 -17 -8 -3 -5 2 -0 2 5 -3 1 2 -0 -1 0 1 -0 0 -1 1 -2 1 3 2 0 1 0 2 1 0 -0 -0 -0 -0 0 -1 -1 -1 -1 -2
-4 3 -2 32 4 -3 -18 -15 -8 -2 -8 -1 1 4 -5 -3 0 -2 -1 -2 -1 -2 -1 -0 -1 5 2 2 1 1 0 2 1 0 -0 -1 0 0 0 -0 -1 -0 -1 -3
-5 -12 2 2 12 7 -1 1 1 -0 -1 -3 -0 3 26 2 2 -5 2 2 -0 -0 -1 -1 0 4 1 1 2 1 1 2 0 -0 0 1 0 1 0 1 1 -1 -2 -2
-6 -2 3 3 2 -7 -2 -1 -3 2 -0 2 -8 -10 10 8 6 -3 -5 -1 -0 0 -0 -1 4 3 1 2 3 2 1 1 1 1 1 1 1 0 1 0 -2 -1 -0 -2
-5 5 3 -1 2 -3 4 2 -1 3 -3 1 0 3 -2 11 4 1 -1 1 -2 -5 -3 1 1 0 0 1 1 0 2 -0 1 1 1 1 1 -2 1 -1 -0 -2 -2 -3
-6 0 -1 -1 -2 -4 5 -1 -1 -3 -7 4 -2 -1 2 -1 6 0 2 0 2 3 2 1 1 2 2 1 1 1 0 2 1 0 2 -0 0 0 -1 0 -2 -3 -2 -0
8 6 -4 -2 0 -1 1 -0 1 6 -5 -0 -4 8 -5 -4 -3 -3 3 -0 2 1 1 1 3 1 0 1 -0 1 3 -0 1 1 -0 1 0 0 0 -4 -3 -2 -3 -1
7 5 -2 -2 -2 -3 1 -1 -2 -3 2 3 -1 2 3 -3 3 4 1 0 2 2 1 1 1 0 1 1 2 2 0 1 0 1 1 -0 1 -1 -4 -2 -1 1 -3 -4
-7 -8 -4 1 -1 -14 -3 -2 -1 -0 -0 1 -2 -1 -1 1 3 2 3 1 1 2 2 1 0 1 2 1 2 0 1 0 1 0 0 -0 -2 -3 -1 1 -0 -5 -5 -2
-3 -18 -22 -14 -17 0 1 -1 1 1 -0 -2 0 -1 -0 1 0 1 1 1 0 2 1 1 0 1 1 1 0 1 -0 0 1 1 -1 -1 -1 -1 0 -2 -3 -2 -2 -3
4 1 -1 0 -2 2 2 0 -2 -1 -0 -2 -3 -1 -1 -0 -0 0 -0 0 1 0 0 2 1 0 1 -2 1 1 0 0 -0 -1 -1 -1 1 0 -3 -3 -2 -1 -1 -2
-5 2 -4 -1 -1 1 -1 0 -0 0 -0 -2 -1 -0 -1 -1 -0 -0 0 1 -0 0 -1 -1 1 1 1 0 0 -1 -0 -1 -1 -1 -1 1 -1 -3 -2 -0 -4 -4 1 -5
-3 -2 -8 -12 5 -1 3 -4 1 -1 -1 1 0 -0 -0 -0 -1 -1 -0 -0 -0 1 1 -0 -1 1 -1 -0 0 -1 -0 0 -1 0 1 -2 -2 -2 -3 -2 3 5 -3 -1
Height
3050 3052 3043 3045 3050 3055 3062 3066 3066 3068 3073 3077 3076 3078 3081 3085 3086 3089 3092 3093 3091 3091 3094 3095 3096 3097 3098 3100 3102 3103 3104 3104 3105 3104 3105 3105 3105 3104 3103 3102 3101 3099 3098 3095
3045 3037 3037 3048 3052 3056 3058 3060 3060 3064 3069 3072 3072 3071 3075 3078 3079 3083 3086 3088 3087 3086 3091 3092 3093 3094 3095 3097 3098 3100 3101 3102 3102 3102 3102 3102 3102 3101 3100 3099 3097 3095 3094 3091
3033 3026 3041 3045 3049 3053 3052 3055 3056 3060 3065 3065 3067 3067 3068 3070 3074 3077 3080 3084 3082 3081 3086 3088 3090 3091 3093 3094 3096 3098 3099 3099 3099 3099 3099 3099 3099 3097 3096 3095 3093 3092 3089 3086
3030 3029 3034 3038 3040 3047 3047 3049 3054 3054 3058 3057 3061 3059 3058 3060 3064 3069 3072 3077 3075 3076 3080 3083 3086 3088 3090 3091 3093 3095 3096 3096 3096 3096 3096 3095 3094 3094 3092 3091 3090 3088 3085 3081
3015 3021 3026 3030 3030 3040 3037 3050 3050 3049 3049 3052 3053 3060 3049 3051 3054 3060 3064 3071 3069 3070 3075 3079 3082 3084 3086 3088 3091 3092 3093 3093 3093 3093 3093 3092 3091 3090 3089 3087 3085 3082 3079 3077
3014 3019 3021 3021 3027 3033 3039 3046 3045 3043 3044 3045 3044 3049 3044 3044 3047 3053 3059 3062 3063 3064 3069 3073 3077 3080 3083 3086 3088 3089 3090 3091 3091 3090 3090 3089 3088 3086 3085 3083 3080 3077 3074 3070
3009 3009 3013 3016 3019 3026 3032 3040 3036 3030 3031 3030 3037 3042 3040 3039 3044 3047 3052 3055 3057 3058 3064 3068 3072 3076 3080 3082 3085 3086 3087 3088 3087 3087 3086 3085 3084 3082 3081 3078 3075 3072 3068 3064
3004 3004 3003 3003 3008 3013 3020 3028 3020 3023 3026 3023 3030 3033 3037 3040 3044 3047 3050 3051 3052 3055 3058 3064 3069 3073 3077 3079 3081 3083 3084 3084 3084 3084 3083 3082 3080 3078 3076 3073 3069 3065 3061 3057
2999 2995 2992 2996 3005 3010 3013 3011 3010 3018 3014 3021 3026 3029 3033 3036 3039 3042 3044 3046 3048 3051 3055 3060 3065 3070 3073 3076 3078 3080 3081 3081 3080 3080 3079 3077 3075 3073 3070 3066 3063 3059 3055 3050
2998 2993 2990 2990 2998 3004 3008 3014 3013 3012 3011 3020 3022 3025 3024 3029 3034 3037 3039 3042 3045 3049 3053 3058 3062 3066 3069 3072 3075 3076 3077 3077 3077 3076 3074 3072 3069 3066 3063 3060 3056 3052 3048 3044
2993 2999 2990 2990 2990 2995 3001 3005 3005 3005 3007 3005 3016 3022 3022 3025 3030 3034 3036 3040 3043 3047 3051 3055 3059 3063 3066 3069 3071 3072 3073 3073 3072 3070 3069 3066 3063 3060 3057 3053 3049 3045 3041 3036
2990 2992 2985 2983 2985 2992 2999 2997 3001 3002 3004 3005 3007 3023 3022 3024 3029 3033 3035 3037 3041 3045 3048 3053 3056 3059 3063 3066 3067 3068 3069 3069 3067 3065 3063 3060 3057 3054 3050 3046 3042 3038 3033 3028
2985 2986 2985 2984 2988 2990 2992 2994 2998 3001 3008 3007 3009 3021 3022 3025 3029 3032 3034 3036 3038 3041 3045 3049 3052 3056 3060 3062 3063 3064 3064 3064 3062 3060 3057 3054 3051 3047 3044 3040 3035 3031 3026 3021
2984 2984 2981 2974 2976 2977 2989 2994 2999 3003 3007 3009 3013 3017 3021 3024 3028 3030 3033 3036 3037 3039 3042 3045 3049 3053 3056 3058 3059 3059 3059 3059 3057 3054 3051 3048 3044 3041 3037 3032 3028 3024 3019 3014
2982 2977 2976 2978 2978 2983 2989 2994 2998 3002 3007 3011 3015 3018 3021 3024 3026 3029 3032 3034 3037 3039 3041 3043 3046 3049 3051 3053 3054 3054 3054 3053 3050 3047 3045 3041 3037 3033 3029 3025 3021 3016 3011 3005
2983 2981 2977 2981 2984 2987 2991 2995 2998 3000 3006 3010 3012 3017 3022 3023 3024 3027 3031 3032 3034 3036 3038 3040 3043 3045 3046 3048 3049 3048 3048 3046 3043 3041 3037 3034 3030 3026 3022 3018 3013 3008 3002 2996
2986 2986 2983 2985 2985 2988 2993 2993 2995 2999 3003 3006 3009 3014 3019 3021 3023 3024 3027 3029 3030 3032 3034 3036 3038 3039 3040 3042 3043 3042 3041 3039 3037 3033 3030 3026 3022 3018 3015 3010 3005 2999 2993 2988
2983 2985 2985 2986 2986 2990 2991 2991 2993 2995 2999 3002 3006 3011 3015 3017 3020 3021 3023 3025 3026 3027 3029 3031 3033 3034 3035 3037 3036 3036 3035 3032 3029 3026 3022 3019 3015 3011 3008 3002 2997 2991 2987 2980
2982 2986 2987 2989 2990 2990 2988 2989 2990 2992 2994 2999 3002 3006 3009 3011 3014 3017 3019 3021 3023 3024 3025 3027 3028 3030 3030 3030 3030 3029 3027 3024 3022 3018 3015 3012 3008 3004 2999 2995 2990 2985 2978 2972
2981 2986 2988 2989 2991 2991 2989 2988 2988 2990 2992 2994 2997 3001 3002 3005 3009 3013 3014 3016 3017 3019 3020 3022 3024 3025 3025 3025 3024 3022 3020 3017 3014 3011 3008 3005 3001 2996 2992 2988 2983 2976 2970 2964
2978 2983 2987 2989 2990 2989 2987 2988 2989 2991 2996 2992 2993 2996 2998 3000 3004 3008 3008 3010 3012 3014 3016 3017 3019 3020 3020 3018 3017 3016 3013 3010 3007 3005 3001 2997 2993 2989 2985 2981 2974 2968 2962 2955
2974 2979 2983 2986 2990 2989 2986 2988 2990 2990 2991 2992 2993 2995 2995 2997 2999 3002 3004 3006 3008 3010 3012 3013 3014 3014 3013 3012 3010 3008 3006 3003 3000 2997 2994 2990 2987 2983 2977 2972 2966 2961 2954 2948
2973 2973 2976 2980 2979 2982 2983 2986 2988 2989 2990 2991 2992 2993 2994 2995 2997 2999 3002 3004 3006 3007 3008 3009 3009 3008 3007 3005 3004 3002 2999 2996 2994 2991 2987 2984 2981 2976 2970 2964 2959 2954 2947 2939
2968 2971 2974 2976 2977 2979 2982 2984 2986 2987 2988 2989 2990 2990 2991 2993 2995 2998 3000 3002 3003 3003 3003 3003 3003 3002 3001 2999 2997 2995 2992 2990 2987 2984 2981 2977 2973 2968 2964 2959 2953 2947 2939 2930
2965 2968 2970 2972 2974 2976 2979 2981 2982 2984 2985 2986 2988 2989 2990 2992 2994 2996 2998 2999 2999 2999 2998 2998 2997 2997 2995 2993 2991 2988 2986 2984 2981 2978 2975 2971 2966 2962 2958 2953 2946 2938 2931 2922
2962 2964 2966 2966 2972 2974 2977 2978 2980 2981 2982 2984 2985 2987 2989 2990 2992 2993 2994 2994 2994 2994 2994 2993 2992 2991 2989 2987 2985 2982 2980 2977 2975 2972 2968 2964 2960 2956 2951 2944 2939 2933 2925 2916